This demonstration page uses our WeatherBlox Daily Observations layout. Learn more.

Left ArrowRight Arrow

31.84235, -102.49876

Hourly Observations for March 22, 2015

Temp ( °F °C ) Dew Point ( °F °C ) Humidity (%) Winds ( mph kmh ) Pressure ( in mb ) Visibility ( mi km ) Precip ( " mm )
12:53 am 00:53 Cloudy with Mist and Fog 53 11.7 51 10.6 93 93 S 3 6 30.04 1017 5 8 0.00 0.00
1:53 am 01:53 Cloudy with Mist and Fog 53 11.7 50 10 89 89 S 5 7 30.03 1017 4 6 0.00 0.00
2:22 am 02:22 Cloudy with Mist and Fog 53 11.7 51 10.6 93 93 Calm 30.06 1018 4 6 0.00 0.00
2:53 am 02:53 Cloudy with Mist and Fog 53 11.7 51 10.6 93 93 SW 5 7 30.03 1017 4 6 0.00 0.00
3:28 am 03:28 Cloudy with Mist and Fog 53 11.7 51 10.6 93 93 WSW 5 7 30.06 1018 3 5 0.00 0.00
3:53 am 03:53 Cloudy with Mist and Fog 53 11.7 51 10.6 93 93 WSW 6 9 30.01 1016 3 5 0.00 0.00
4:20 am 04:20 Cloudy with Mist and Fog 53 11.7 51 10.6 93 93 W 5 7 30.06 1018 3 5 0.00 0.00
4:35 am 04:35 Cloudy with Mist and Fog 53 11.7 51 10.6 93 93 WNW 3 6 30.03 1017 3 5 0.00 0.00
4:44 am 04:44 Cloudy with Mist and Fog 53 11.7 51 10.6 93 93 WNW 5 7 30.03 1017 4 6 0.00 0.00
4:53 am 04:53 Cloudy with Mist and Fog 52 11.1 50 10 93 93 W 5 7 30.00 1016 3 5 0.00 0.00
5:08 am 05:08 Cloudy with Mist and Fog 52 11.1 51 10.6 97 97 W 3 6 30.06 1018 3 4 0.00 0.00
5:28 am 05:28 Cloudy with Mist and Fog 52 11.1 50 10 93 93 WSW 3 6 30.06 1018 1 2 0.00 0.00
5:36 am 05:36 Cloudy with Mist and Fog 52 11.1 50 10 93 93 WSW 5 7 30.06 1018 1 1 0.00 0.00
5:53 am 05:53 Cloudy with Mist and Fog 52 11.1 51 10.6 97 97 WSW 5 7 29.99 1016 1 2 0.00 0.00
5:58 am 05:58 Cloudy with Mist and Fog 52 11.1 50 10 93 93 WSW 6 9 30.06 1018 2 3 0.00 0.00
6:07 am 06:07 Cloudy with Mist and Fog 52 11.1 50 10 93 93 WSW 5 7 30.06 1018 4 6 0.00 0.00
6:50 am 06:50 Partly Cloudy with Mist and Fog 50 10 48 9 94 94 SSW 5 7 30.06 1018 6 10 0.00 0.00
6:53 am 06:53 Mostly Clear with Mist and Fog 50 10 48 8.9 93 93 SW 5 7 29.99 1016 5 8 0.00 0.00
7:40 am 07:40 Mostly Clear with Mist and Fog 49 9.4 47 8.3 93 93 SSW 3 6 30.06 1018 2 3 0.00 0.00
7:44 am 07:44 Mostly Cloudy with Mist and Fog 49 9.4 47 8.3 93 93 SSW 3 6 30.06 1018 1 2 0.00 0.00
7:48 am 07:48 Clear with Fog 48 9 46 8 94 94 SSW 3 6 30.06 1018 1 1 0.00 0.00
7:53 am 07:53 Sunny with Fog 49 9.4 46 7.8 90 90 SSW 3 6 30.00 1016 0 0 0.00 0.00
8:19 am 08:19 Sunny with Mist and Fog 49 9.4 47 8.3 93 93 WSW 3 6 30.06 1018 1 1 0.00 0.00
8:28 am 08:28 Sunny with Mist and Fog 49 9.4 47 8.3 93 93 WSW 5 7 30.06 1018 1 2 0.00 0.00
8:35 am 08:35 Mostly Cloudy with Mist and Fog 50 10 47 8.3 89 89 WSW 3 6 30.06 1018 1 1 0.00 0.00
8:44 am 08:44 Mostly Cloudy with Fog 49 9.4 48 8.9 97 97 WSW 3 6 30.06 1018 5 8 0.00 0.00
8:53 am 08:53 Mostly Cloudy with Fog 49 9.4 47 8.3 93 93 WSW 3 6 30.01 1016 5 8 0.00 0.00
9:32 am 09:32 Mostly Cloudy with Mist and Fog 50 10 49 9.4 96 96 WSW 6 9 30.09 1019 1 2 0.00 0.00
9:35 am 09:35 Mostly Cloudy with Mist and Fog 50 10 49 9.4 96 96 WSW 7 11 30.09 1019 3 5 0.00 0.00
9:46 am 09:46 Partly Cloudy 51 10.6 49 9.4 92 92 WSW 8 13 30.09 1019 10 16 0.00 0.00
9:53 am 09:53 Mostly Sunny 52 11.1 49 9.4 89 89 WSW 10 17 30.01 1016 10 16 0.00 0.00
10:53 am 10:53 Sunny 58 14.4 50 10 75 75 W 9 15 30.01 1016 10 16 0.00 0.00
11:53 am 11:53 Sunny 64 17.8 50 10 60 60 W 8 13 30.01 1016 10 16 0.00 0.00
12:53 pm 12:53 Sunny 69 20.6 50 10 51 51 W 9 15 29.99 1016 10 16 0.00 0.00
1:53 pm 13:53 Sunny 72 22.2 47 8.3 41 41 WNW 12 19 29.97 1015 10 16 0.00 0.00
2:53 pm 14:53 Sunny 73 22.8 45 7.2 37 37 W 8 13 29.95 1014 10 16 0.00 0.00
3:53 pm 15:53 Sunny 75 23.9 47 8.3 37 37 W 12 19 29.93 1014 10 16 0.00 0.00
4:53 pm 16:53 Sunny 77 25 45 7.2 32 32 WNW 10 17 29.92 1013 10 16 0.00 0.00
5:53 pm 17:53 Sunny 77 25 44 6.7 31 31 W 14 22 29.91 1013 10 16 0.00 0.00
6:53 pm 18:53 Sunny 77 25 42 5.6 29 29 SW 8 13 29.91 1013 10 16 0.00 0.00
7:53 pm 19:53 Sunny 70 21.1 46 7.8 42 42 SSW 8 13 29.93 1014 10 16 0.00 0.00
8:53 pm 20:53 Clear 65 18.3 47 8.3 52 52 SSW 8 13 29.95 1014 10 16 0.00 0.00
9:53 pm 21:53 Clear 63 17.2 45 7.2 52 52 SW 8 13 29.97 1015 10 16 0.00 0.00
10:53 pm 22:53 Clear 61 16.1 44 6.7 54 54 WSW 7 11 29.98 1015 10 16 0.00 0.00
11:53 pm 23:53 Clear 59 15 43 6.1 56 56 WSW 7 11 29.98 1015 10 16 0.00 0.00

Powered by AerisWeather